When you browse on this site, cookies collect data to enhance your experience and personalize the content and advertising you see.
Visit our Privacy Policy to learn more. By continuing to use the site, you agree to this use of cookies and data.
  • In Romania
  • List of Countries
  • For 7 days
  • Water Temperature
  • Satellite Maps
  • Weather Map
  • Weather Widgets
  • user-avatar
    Login

    Hourly Weather Wroniec

    Today, 22 February, Friday

    Time Temperature Precipitation Wind Pressure Humidity
    00:00 +5°C° 0.4 mm 5 mps 743 mmHg 86%
    01:00 +4°C° 0 mm 4 mps 743 mmHg 87%
    02:00 +4°C° 0.6 mm 4 mps 742 mmHg 88%
    03:00 +3°C° 0.6 mm 5 mps 742 mmHg 88%
    04:00 +3°C° 0.6 mm 5 mps 742 mmHg 89%
    05:00 +2°C° 0.6 mm 6 mps 743 mmHg 87%
    06:00 -1°C° 0.6 mm 7 mps 744 mmHg 85%
    07:00 -2°C° 0 mm 7 mps 745 mmHg 80%
    08:00 -3°C° 0.1 mm 7 mps 746 mmHg 75%
    09:00 -4°C° 0.1 mm 7 mps 748 mmHg 70%
    10:00 -4°C° 0.1 mm 7 mps 749 mmHg 64%
    11:00 -4°C° 0 mm 7 mps 750 mmHg 58%
    12:00 -4°C° 0 mm 7 mps 751 mmHg 52%
    13:00 -4°C° 0 mm 6 mps 752 mmHg 45%
    14:00 -4°C° 0 mm 6 mps 753 mmHg 44%
    15:00 -5°C° 0 mm 6 mps 753 mmHg 44%
    16:00 -5°C° 0 mm 6 mps 753 mmHg 44%
    17:00 -5°C° 0 mm 6 mps 754 mmHg 45%
    18:00 -6°C° 0 mm 6 mps 755 mmHg 46%
    19:00 -6°C° 0 mm 5 mps 756 mmHg 47%
    20:00 -6°C° 0 mm 5 mps 756 mmHg 44%
    21:00 -6°C° 0 mm 5 mps 757 mmHg 42%
    22:00 -6°C° 0 mm 5 mps 757 mmHg 40%
    23:00 -7°C° 0 mm 5 mps 758 mmHg 40%

    Tomorrow, 23 February, Saturday

    Time Temperature Precipitation Wind Pressure Humidity
    00:00 -7°C° 0 mm 5 mps 758 mmHg 40%
    01:00 -7°C° 0 mm 4 mps 758 mmHg 40%
    02:00 -7°C° 0 mm 4 mps 758 mmHg 42%
    03:00 -7°C° 0 mm 4 mps 759 mmHg 44%
    04:00 -6°C° 0 mm 3 mps 759 mmHg 45%
    05:00 -6°C° 0 mm 3 mps 759 mmHg 47%
    06:00 -6°C° 0 mm 3 mps 759 mmHg 49%
    07:00 -7°C° 0 mm 3 mps 760 mmHg 51%
    08:00 -6°C° 0 mm 3 mps 760 mmHg 49%
    09:00 -5°C° 0 mm 3 mps 760 mmHg 47%
    10:00 -5°C° 0 mm 3 mps 760 mmHg 45%
    11:00 -4°C° 0 mm 3 mps 760 mmHg 42%
    12:00 -4°C° 0 mm 3 mps 760 mmHg 39%
    13:00 -2°C° 0 mm 3 mps 760 mmHg 37%
    14:00 -2°C° 0 mm 2 mps 760 mmHg 37%
    15:00 -2°C° 0 mm 2 mps 759 mmHg 37%
    16:00 -2°C° 0 mm 2 mps 759 mmHg 37%
    17:00 -3°C° 0 mm 2 mps 759 mmHg 41%
    18:00 -1°C° 0 mm 1 mps 759 mmHg 44%
    19:00 -2°C° 0 mm 1 mps 759 mmHg 47%
    20:00 -2°C° 0 mm 1 mps 759 mmHg 47%
    21:00 -2°C° 0 mm 1 mps 759 mmHg 48%
    22:00 -2°C° 0 mm 1 mps 759 mmHg 49%
    23:00 -2°C° 0 mm 1 mps 759 mmHg 49%

    Day after tomorrow, 24 February, Sunday

    Time Temperature Precipitation Wind Pressure Humidity
    00:00 -2°C° 0 mm 1 mps 759 mmHg 49%
    01:00 -2°C° 0 mm 1 mps 759 mmHg 50%
    02:00 -2°C° 0 mm 1 mps 758 mmHg 49%
    03:00 -3°C° 0 mm 0 mps 758 mmHg 48%
    04:00 -3°C° 0 mm 0 mps 758 mmHg 47%
    05:00 -2°C° 0 mm 1 mps 757 mmHg 45%
    06:00 -1°C° 0 mm 1 mps 757 mmHg 43%
    07:00 -1°C° 0 mm 1 mps 757 mmHg 41%
    08:00 0°C° 0 mm 1 mps 757 mmHg 37%
    09:00 -1°C° 0 mm 2 mps 757 mmHg 33%
    10:00 +1°C° 0 mm 2 mps 757 mmHg 30%
    11:00 +2°C° 0 mm 2 mps 756 mmHg 28%
    12:00 +2°C° 0 mm 3 mps 756 mmHg 26%
    13:00 +3°C° 0 mm 3 mps 756 mmHg 24%
    14:00 +3°C° 0 mm 3 mps 756 mmHg 28%
    15:00 +2°C° 0 mm 3 mps 755 mmHg 32%
    16:00 +2°C° 0 mm 3 mps 755 mmHg 36%
    17:00 +1°C° 0 mm 3 mps 755 mmHg 39%
    18:00 0°C° 0 mm 3 mps 755 mmHg 42%
    19:00 -1°C° 0 mm 3 mps 755 mmHg 45%
    20:00 -1°C° 0 mm 3 mps 755 mmHg 46%
    21:00 -1°C° 0 mm 3 mps 756 mmHg 47%
    22:00 -1°C° 0 mm 3 mps 756 mmHg 48%
    23:00 -1°C° 0 mm 3 mps 756 mmHg 50%

    25 February, Monday

    Time Temperature Precipitation Wind Pressure Humidity
    00:00 -1°C° 0 mm 3 mps 756 mmHg 51%
    01:00 -1°C° 0 mm 3 mps 756 mmHg 53%
    02:00 -1°C° 0 mm 3 mps 755 mmHg 55%
    03:00 -1°C° 0 mm 3 mps 755 mmHg 57%
    04:00 -2°C° 0 mm 4 mps 755 mmHg 59%
    05:00 -1°C° 0 mm 3 mps 755 mmHg 61%
    06:00 -1°C° 0 mm 3 mps 755 mmHg 64%
    07:00 -1°C° 0 mm 3 mps 755 mmHg 67%
    08:00 -1°C° 0 mm 4 mps 755 mmHg 65%
    09:00 0°C° 0 mm 4 mps 755 mmHg 64%
    10:00 +3°C° 0 mm 4 mps 755 mmHg 62%
    11:00 +4°C° 0 mm 4 mps 755 mmHg 63%
    12:00 +5°C° 0 mm 4 mps 755 mmHg 65%
    13:00 +6°C° 0 mm 4 mps 755 mmHg 66%
    14:00 +5°C° 0 mm 3 mps 755 mmHg 69%
    15:00 +5°C° 0 mm 3 mps 755 mmHg 71%
    16:00 +5°C° 0 mm 3 mps 754 mmHg 74%
    17:00 +4°C° 0 mm 3 mps 754 mmHg 79%
    18:00 +3°C° 0 mm 3 mps 754 mmHg 84%
    19:00 +1°C° 0 mm 3 mps 754 mmHg 89%
    20:00 +1°C° 0 mm 3 mps 754 mmHg 90%
    21:00 +1°C° 0 mm 3 mps 754 mmHg 91%
    22:00 +1°C° 0 mm 3 mps 754 mmHg 91%
    23:00 0°C° 0 mm 3 mps 754 mmHg 91%

    26 February, Tuesday

    Time Temperature Precipitation Wind Pressure Humidity
    00:00 -1°C° 0 mm 4 mps 754 mmHg 92%
    01:00 -1°C° 0 mm 4 mps 753 mmHg 92%
    02:00 -1°C° 0 mm 4 mps 753 mmHg 92%
    03:00 -1°C° 0 mm 4 mps 752 mmHg 93%
    04:00 -1°C° 0 mm 5 mps 752 mmHg 93%
    05:00 -1°C° 0 mm 5 mps 752 mmHg 92%
    06:00 -1°C° 0 mm 5 mps 751 mmHg 92%
    07:00 -1°C° 0 mm 5 mps 751 mmHg 91%
    08:00 +1°C° 0 mm 5 mps 751 mmHg 82%
    09:00 +2°C° 0 mm 6 mps 751 mmHg 74%
    10:00 +4°C° 0 mm 6 mps 751 mmHg 65%
    11:00 +5°C° 0 mm 7 mps 750 mmHg 60%
    12:00 +6°C° 0 mm 7 mps 750 mmHg 55%
    13:00 +8°C° 0 mm 7 mps 749 mmHg 50%
    14:00 +8°C° 0 mm 7 mps 749 mmHg 52%
    15:00 +7°C° 0 mm 6 mps 749 mmHg 53%
    16:00 +7°C° 0 mm 6 mps 749 mmHg 54%
    17:00 +7°C° 0 mm 5 mps 749 mmHg 58%
    18:00 +6°C° 0 mm 5 mps 749 mmHg 63%
    19:00 +5°C° 0 mm 4 mps 750 mmHg 67%
    20:00 +5°C° 0 mm 4 mps 750 mmHg 72%
    21:00 +4°C° 0 mm 4 mps 750 mmHg 77%
    22:00 +3°C° 0 mm 3 mps 750 mmHg 82%
    23:00 +3°C° 0 mm 3 mps 750 mmHg 85%

    27 February, Wednesday

    Time Temperature Precipitation Wind Pressure Humidity
    00:00 +2°C° 0 mm 3 mps 750 mmHg 88%
    01:00 +1°C° 0 mm 3 mps 750 mmHg 91%
    02:00 +1°C° 0 mm 3 mps 750 mmHg 91%
    03:00 0°C° 0 mm 3 mps 750 mmHg 92%
    04:00 0°C° 0 mm 3 mps 750 mmHg 92%
    05:00 0°C° 0 mm 3 mps 750 mmHg 92%
    06:00 0°C° 0 mm 3 mps 750 mmHg 92%
    07:00 +1°C° 0 mm 2 mps 750 mmHg 92%
    08:00 +1°C° 0 mm 3 mps 750 mmHg 85%
    09:00 +3°C° 0 mm 3 mps 750 mmHg 78%
    10:00 +5°C° 0 mm 3 mps 750 mmHg 71%
    11:00 +6°C° 0 mm 4 mps 749 mmHg 67%
    12:00 +7°C° 0 mm 4 mps 748 mmHg 62%
    13:00 +10°C° 0 mm 4 mps 748 mmHg 58%
    14:00 +10°C° 0 mm 4 mps 747 mmHg 59%
    15:00 +10°C° 0 mm 4 mps 746 mmHg 60%
    16:00 +9°C° 0 mm 5 mps 746 mmHg 61%
    17:00 +8°C° 0 mm 4 mps 745 mmHg 64%
    18:00 +7°C° 0 mm 4 mps 745 mmHg 68%
    19:00 +5°C° 0 mm 4 mps 745 mmHg 71%
    20:00 +5°C° 0 mm 4 mps 744 mmHg 70%
    21:00 +5°C° 0 mm 4 mps 744 mmHg 70%
    22:00 +5°C° 0 mm 4 mps 744 mmHg 70%
    23:00 +5°C° 0 mm 4 mps 743 mmHg 70%
    Show more